Location: Bamobli
(6.6379°N, 10.9396°W)
Time: 23:10:15
(UTC+00:00)

N. Korean satellite - Pass Details

Date: 10 March 2021
Orbit: 453 x 499 km, 97.2° (Epoch: 12 April)

Event Time Altitude Azimuth Distance (km) Brightness Sun altitude
Rises 05:34:03 0° 18° (NNE) 2,559 10.4 -20.3°
Reaches altitude 10° 05:36:08 10° 24° (NNE) 1,684 9.6 -19.8°
Maximum altitude 05:39:41 51° 100° (E) 627 7.4 -18.9°
Drops below altitude 10° 05:43:15 10° 177° (S) 1,699 9.4 -18.0°
Sets 05:45:22 0° 182° (S) 2,584 10.3 -17.5°
